User: anonymous   Login
Location: Bittelbronn
(48.4454°N, 8.5870°E)
Time: 08:03:19
(UTC+00:00)
Language:

CZ-2C R/B - Orbit

View from above orbital plane
View from above orbital plane
View from above satellite
View from above satellite

Ground track
Ground track

The orbit data is extracted from the following two-line orbital elements,

1 28480U 04046B   24203.81224744  .00000560  00000-0  22403-3 0  9994
2 28480  98.1630 145.7171 0141644 116.6990 244.8772 14.26407763 23536
Epoch (UTC): 21 July 2024 19:29:38
Eccentricity: 0.0141644
inclination: 98.1630°
perigee height: 702 km
apogee height: 905 km
right ascension of ascending node: 145.7171°
argument of perigee: 116.6990°
revolutions per day: 14.26407763
mean anomaly at epoch: 244.8772°
orbit number at epoch: 2353

The dashed part of the orbit path shows where the satellite is in the earth's shadow,  

DLR